Overview Statistics Trail Chart Weather Telemetry Raw packets
 

This is the latest recevied weather packets stored in our database for station/object AI5BL. If no packets are shown the sender has not sent any weather packets the latest 10 day(s).

<< 43 44 45 46 47 48 49 >>
Time Temp. Humidity Pressure Rain* Wind** Luminosity Snow
1788358284 31.67° C 73% 1021.1 hPa 0 mm - 322 W/m² -
1788357979 31.11° C 73% 1021 hPa 0 mm - 307 W/m² -
1788357674 30.56° C 75% 1020.8 hPa 0 mm - 289 W/m² -
1788357373 30.56° C 76% 1021 hPa 0 mm - 273 W/m² -
1788357068 30.56° C 77% 1021 hPa 0 mm - 257 W/m² -
1788356764 30.56° C 76% 1021.1 hPa 0 mm - 240 W/m² -
1788356463 30° C 77% 1021.1 hPa 0 mm - 224 W/m² -
1788356158 30° C 79% 1021.2 hPa 0 mm - 209 W/m² -
1788355858 28.89° C 83% 1021 hPa 0 mm - 194 W/m² -
1788355553 28.33° C 85% 1021 hPa 0 mm - 178 W/m² -
1788355250 28.33° C 85% 1021 hPa 0 mm - 165 W/m² -
1788354946 27.78° C 87% 1020.9 hPa 0 mm - 131 W/m² -
1788354645 27.22° C 88% 1020.8 hPa 0 mm - 112 W/m² -
1788354341 26.67° C 90% 1020.9 hPa 0 mm - 96 W/m² -
1788354036 25.56° C 93% 1020.8 hPa 0 mm - 82 W/m² -
1788353732 25° C 97% 1021 hPa 0 mm - 73 W/m² -
1788353428 23.89° C 98% 1021 hPa 0 mm - 40 W/m² -
1788353124 23.89° C 98% 1020.8 hPa 0 mm - 37 W/m² -
1788352818 23.33° C 99% 1020.9 hPa 0 mm - 34 W/m² -
1788352514 23.33° C 99% 1020.8 hPa 0 mm - 33 W/m² -
1788352214 23.33° C 99% 1020.9 hPa 0 mm - 31 W/m² -
1788351909 23.33° C 99% 1020.8 hPa 0 mm - 29 W/m² -
1788351604 22.78° C 99% 1020.8 hPa 0 mm - 27 W/m² -
1788351299 22.78° C 99% 1020.8 hPa 0 mm - 25 W/m² -
1788350994 22.78° C 99% 1020.6 hPa 0 mm - 22 W/m² -

* Rain latest hour (hover to see other rain measurements)
** Current wind speed in m/s (hover to see current wind gust speed)